Flag for Australia Weather past 2 weeks in Uluru, Northern Territory, Australia

Now
61 °F

Passing clouds.


Feels Like: 61 °F
Forecast: 61 / 75 °F
Wind: 5 mph from Southwest

Location: Ayers Rock

Current Time: May 28, 2015 at 7:35:47 AM

Latest Report: May 28, 2015 at 6:30 AM


Visibility: N/A

Pressure: 30.12 "Hg

Humidity: 94%

Dew point: 59 °F

Location of UluruLocation

Historic Weather in Uluru — Graph

°F

Uluru temperature yesterday

Maximum temperature yesterday: 82 °F (at 2:30 PM)
Minimum temperature yesterday: 61 °F (at 5:30 AM)
Average temperature yesterday: 69 °F

Past Weeks' High & Low Weather Summary

 TemperatureHumidityPressure
High82 °F (May 27, 2:30 PM)100% (May 28, 12:30 AM)30.54 "Hg (May 28, 12:30 AM)
Low37 °F (May 16, 6:30 AM)13% (May 18, 4:30 PM)30.01 "Hg (May 18, 3:30 PM)
Average59 °F43%30.25 "Hg
* Reported May 13 5:30 AM — May 28 5:30 AM, Uluru, Weather by CustomWeather, © 2015

Note: Actual official high and low records may vary slightly from our data, if they occured in-between our weather recording intervals... More about our weather records

Advertising

Uluru weather history for previous 24 hours

 ConditionsComfort  
Time TempWeatherWind HumidityBarometerVisibility
5:30 AM
Thu, May 28
61 °FMostly cloudy.5 mph94%30.12 "HgN/A
4:30 AM63 °FMostly cloudy.2 mph94%30.09 "HgN/A
3:30 AM63 °FMostly cloudy.No wind94%30.12 "HgN/A
2:30 AM63 °FOvercast.5 mph100%30.12 "HgN/A
1:30 AM63 °FOvercast.5 mph94%30.09 "HgN/A
12:30 AM63 °FMostly cloudy.No wind100%30.09 "HgN/A
11:30 PM
Wed, May 27
63 °FMostly cloudy.5 mph94%30.09 "HgN/A
10:30 PM63 °FPassing clouds.7 mph94%30.09 "HgN/A
9:30 PM64 °FMostly cloudy.No wind88%30.12 "HgN/A
8:30 PM66 °FPartly cloudy.8 mph73%30.15 "HgN/A
7:30 PM70 °FMostly cloudy.8 mph57%30.12 "HgN/A
6:30 PM75 °FOvercast.8 mph36%30.07 "HgN/A
5:30 PM79 °FMostly cloudy.17 mph28%30.07 "HgN/A
4:30 PM81 °FOvercast.8 mph28%30.04 "HgN/A
3:30 PM81 °FPartly sunny.2 mph28%30.04 "HgN/A
2:30 PM82 °FSunny.2 mph28%30.04 "HgN/A
1:30 PM81 °FSunny.8 mph30%30.07 "HgN/A
12:30 PM77 °FSunny.14 mph34%30.09 "HgN/A
11:30 AM77 °FScattered clouds.14 mph36%30.15 "HgN/A
10:30 AM73 °FSunny.13 mph38%30.18 "HgN/A
9:30 AM68 °FPartly sunny.13 mph46%30.18 "HgN/A
8:30 AM63 °FOvercast.8 mph59%30.18 "HgN/A
7:30 AM61 °FSunny.7 mph63%30.15 "HgN/A
Weather by CustomWeather, © 2015

See weather overviewHow to use our weather pages